Near Earth Objects - Dynamic Site NEODyS (Near Earth Objects Dynamic Site) is an Italian and Spanish service that provides information on Near Earth Objects with a convenient Web-based interface. It is based on a continually and (almost) automatically maintained database of near earth asteroid...
|
|
|
|
|
|
Asteroid 8E4BDB1
(Preview)
|
Solar System
|
5
|
5435
|
|
|
A near earth asteroid (NEO) 8E4BDB1 is predicted to make a close flyby of the Earth; passing at a distance of only 0.00108 AU (about 0.6 LD), at about 9:04 UT on Sunday, 9 March. The NEO will reach magnitude 12.6 and be observable from Europe and the Americas. H=26.7 8E4BDB1 = 2008 EZ7 [url=http://www...
|
|
|
|
|
|
6344 P-L
(Preview)
|
Solar System
|
2
|
6491
|
|
|
For more than 40 years, an asteroid believed to be potentially dangerous to Earth has been essentially lost to view. But no more. The so-called 6344 P-L was first spotted in 1960, and given the designation Potentially Hazardous Asteroid meaning that its orbit took it within .05 astronomical units (...
|
|
|
|
|
|
Asteroid (35396) 1997 XF11
(Preview)
|
Solar System
|
0
|
4606
|
|
|
Asteroid (35396) 1997 XF11 is a near-Earth and Mars-crosser asteroid which, shortly after its discovery on December 6, 1997, by James V. Scotti of the University of Arizona's Spacewatch Project, was predicted to make an exceptionally close approach to Earth in October 2028. [url=http://en.wik...
|
|
|
|
|
|
Asteroid 2006 HF6
(Preview)
|
Asteroids
|
0
|
2458
|
|
|
Asteroid 2006 HF6 will make a near-Earth flyby (0.013 AU) on the 19th April, 2011.Orbital elements:
2006 HF6 Earth MOID = 0.0027 AU
Epoch 2006 Mar. 6.0 TT = JDT 2453800.5 MPC
M 5.94793 (2000.0) P Q
n 0.58341866 Peri. 86.65334 -0.43973079 -0.89637331
a 1.4184559 Node 29.63715 +0.77234901 -0.4...
|
|
|
|
|
|
NEOShield
(Preview)
|
General news
|
3
|
4744
|
|
|
NEOShield to assess Earth defence NEOShield is a new international project that will assess the threat posed by Near Earth Objects (NEO) and look at the best possible solutions for dealing with a big asteroid or comet on a collision path with our planet. The effort is being led from the German space ag...
|
|
|
|
|
|
Asteroid 2012 DA14
(
1 2 3 4
)
(Preview)
|
Asteroids 2012
|
32
|
37211
|
|
|
Orbital elements:
2012 DA14 Earth MOID = 0.0002 AU
Epoch 2012 Mar. 14.0 TT = JDT 2456000.5 MPC
M 103.32879 (2000.0) P Q
n 0.98299208 Peri. 271.10866 +0.51514870 -0.85159843
a 1.0017731 Node 147.29585 +0.84032283 +0.47954750
e 0.1082261 Incl. 10.33843 +0.16875831 +0.21169391
P 1.00 H 24....
|
|
|
|
|